Regional Weather Roundup
Issued by NWS

Home | Current Version | Previous Version | Text Only | Print | Product List | Glossary On
Versions: 1 2 3 4 5 6 7 8 9 10 11 12 13 14 15 16 17 18 19 20 21 22 23 24 25 26 27 28 29 30 31 32 33 34 35 36 37 38 39 40 41 42 43 44 45 46 47 48 49 50
000
ASUS44 KFWD 102210
RWRTX
NORTH TEXAS HOURLY WEATHER ROUNDUP
NATIONAL WEATHER SERVICE FORT WORTH TX
400 PM CST SAT DEC 10 2016

NOTE: "FAIR" INDICATES FEW OR NO CLOUDS BELOW 12,000 FEET WITH NO
SIGNIFICANT WEATHER AND/OR OBSTRUCTIONS TO VISIBILITY.

TXZ118-119-102300-
DALLAS/FORT WORTH METROPLEX

CITY           SKY/WX    TMP DP  RH WIND       PRES   REMARKS
DFW AIRPORT    CLOUDY    49  32  52 S13       30.24F
DALLAS LOVE    CLOUDY    49  30  48 S16       30.26F
FTW MEACHAM    CLOUDY    49  32  52 S17G23    30.23F
DAL-EXECUTIVE  CLOUDY    48  30  49 S9        30.25F
FTW-ALLIANCE   CLOUDY    48  33  56 S15G24    30.22F
FTW-NAS-JRB    CLOUDY    49  34  56 S20G25    30.25F
FTW-SPINKS     CLOUDY    48  32  53 S12G23    30.27F
ARLINGTON      LGT RAIN  49  31  49 S14G20    30.26F
GRAND PRAIRIE  PTSUNNY   48  30  49 S17       30.28F
ADDISON        CLOUDY    48  30  49 S13G21    30.26F
MESQUITE       CLOUDY    46  28  49 SE13      30.29F
LANCASTER      CLOUDY    48  28  46 SE10      30.28F
$$

TXZ091>094-102>105-117-120-121-131>134-102300-
NORTH CENTRAL TEXAS

CITY           SKY/WX    TMP DP  RH WIND       PRES   REMARKS
SHRMAN/DENISON CLOUDY    47  31  54 S15       30.24F
GAINESVILLE    CLOUDY    45  31  58 S14       30.23F WCI  38
BOWIE          MOSUNNY   48  37  64 S14G22    30.18F
BRIDGEPORT     CLOUDY    48  38  69 S13       30.23S
DECATUR        PTSUNNY   46  34  63 S13G18    30.22S WCI  40
DENTON         CLOUDY    47  33  58 S17       30.23F
MCKINNEY       CLOUDY    47  31  53 S17       30.26F
BONHAM         CLOUDY    45  25  45 SE15      30.26F WCI  38
GREENVILLE     CLOUDY    46  28  49 SE10      30.29F
ROCKWALL       CLOUDY    47  30  52 S9        30.28F
TERRELL        CLOUDY    47  27  45 S13       30.30F
WAXAHACHIE     CLOUDY    48  32  54 SE12      30.27F
CLEBURNE       CLOUDY    46  32  57 S13       30.27S
GRANBURY       CLOUDY    50  37  61 S10       30.25F
$$

TXZ083>090-098>101-113>116-127>130-139>142-154-155-102300-
WESTERN NORTH TEXAS

CITY           SKY/WX    TMP DP  RH WIND       PRES   REMARKS
WICHITA FALLS  SUNNY     53  33  46 S24       30.11F
WF-KICKAPOO    SUNNY     54  34  46 S21       30.12F
VERNON         SUNNY     57  32  39 S15       30.06F
ABILENE        PTSUNNY   59  45  59 S23G31    30.12F
ABILENE-DYESS  SUNNY     58  43  58 S28G37    30.09F
CISCO          CLOUDY    54  39  58 S16G23    30.16F
BRECKENRIDGE   SUNNY     56  38  49 S16G23    30.15F
GRAHAM         SUNNY     55  38  53 S8G18     30.14F
MINERAL WELLS  CLOUDY    49  37  63 S18G24    30.19F
STEPHENVILLE   CLOUDY    49  38  68 S17       30.24F
COMANCHE       CLOUDY    50  40  68 S12G20    30.21F
BROWNWOOD      CLOUDY    52  39  62 S15       30.20F
COLEMAN        CLOUDY    55  44  64 S15G22    30.17F
$$

TXZ143>147-156>162-174-175-102300-
CENTRAL TEXAS

CITY           SKY/WX    TMP DP  RH WIND       PRES   REMARKS
WACO           CLOUDY    49  35  58 S13       30.28F
WACO-MCGREGOR  CLOUDY    48  36  63 S12       30.28F
HILLSBORO      CLOUDY    48  35  61 SE12      30.27F
CORSICANA      CLOUDY    49  28  44 SE9       30.31F
MEXIA          CLOUDY    48  31  52 SE9       30.29F
HEARNE         CLOUDY    52  36  55 SE6       30.31F
CAMERON        CLOUDY    51  36  56 SE6       30.29F
TEMPLE         CLOUDY    50  38  63 S10       30.28F
KILLEEN        CLOUDY    48  39  70 SE12      30.25F
KILLEEN-SKYLRK CLOUDY    49  40  71 S12       30.27F
FORT HOOD      CLOUDY    48  39  69 S9        30.24F
GATESVILLE     CLOUDY    48  37  66 S9        30.28F
HAMILTON       CLOUDY    49  38  65 S16       30.24F
LAMPASAS       CLOUDY    50  43  77 S6        30.24F
$$

TXZ095>097-106>112-122>126-135>138-148>153-164>167-102300-
EAST TEXAS

CITY           SKY/WX    TMP DP  RH WIND       PRES   REMARKS
PARIS          CLOUDY    45  21  39 SE15      30.30S WCI  38
SULPHUR SPRNGS CLOUDY    47  23  38 SE9       30.32F
MOUNT PLEASANT MOSUNNY   47  25  41 SE10      30.34F
GILMER         CLOUDY    46  29  51 SE6       30.33F
MINEOLA        CLOUDY    48  25  40 SE7       30.31F
TYLER          CLOUDY    48  27  44 SE9       30.31F
LONGVIEW       CLOUDY    49  30  48 SE9       30.34F
MARSHALL       CLOUDY    50  28  42 SE3       30.37F
ATHENS         CLOUDY    46  28  49 SE7       30.30F
PALESTINE      CLOUDY    49  32  52 SE6       30.33F
JACKSONVILLE   CLOUDY    47  30  51 SE7       30.33F
HENDERSON      CLOUDY    50  28  42 SE7       30.34F
CENTER         CLOUDY    53  23  30 SE6       30.37F
NACOGDOCHES    CLOUDY    52  25  35 SE6       30.33F
LUFKIN         CLOUDY    50  29  44 SE5       30.35F
$$

SUPPLEMENTAL OBSERVATIONS (CENTRAL)

CITY           SKY/WX    TMP DP  RH WIND       PRES   REMARKS
PAT MAYSE LAKE   N/A     45  21  39 E15         N/A  WCI  38
GREENVILLE       N/A     46  25  42 S7          N/A
MCGREGOR         N/A     50  34  53 S9          N/A
TEMPLE           N/A     52  37  58 S10         N/A
$$

SUPPLEMENTAL OBSERVATIONS (WEST)

CITY           SKY/WX    TMP DP  RH WIND       PRES   REMARKS
MILLERS CREEK    N/A     57  41  54 S17         N/A
POSSUM KINGDOM   N/A     54  36  50 S14G24      N/A
GRANBURY         N/A     48  36  61 S13         N/A
HAMBY            N/A     59  45  58 S24G30      N/A
$$

SUPPLEMENTAL OBSERVATIONS (EAST)

CITY           SKY/WX    TMP DP  RH WIND       PRES   REMARKS
LINDEN           N/A     46  27  46 SE3         N/A
GILMER           N/A     46  28  49 SE7         N/A
HENDERSON        N/A     50  28  43 SE7         N/A
N SABINE NF      N/A     52  32  46 MISG        N/A
$$

SUPPLEMENTAL OBSERVATIONS ARE A COLLECTION OF AUTOMATED INSTRUMENTS
THAT ARE MAINTAINED BY A VARIETY OF FEDERAL AND STATE AGENCIES.
CERTAIN ELEMENTS...SUCH AS HUMIDITY VALUES AND SUSTAINED WIND
SPEEDS...MAY BE APPROXIMATED.





USA.gov is the U.S. government's official web portal to all federal, state and local government web resources and services.